Buger, Spain

11:04 AM CET on February 22, 2018 (GMT +0100)
Buger

Weather History for 08306 - August, 2013

Change the Weather History Date:

Tuesday, August 13, 2013

  Actual Average Record
Temperature  
Mean Temperature 80 °F -  
Max Temperature 92 °F 83 °F - ()
Min Temperature 67 °F 64 °F - ()
Cooling Degree Days 14    
Growing Degree Days 30 (Base 50)    
Moisture  
Dew Point 65 °F    
Average Humidity 62    
Maximum Humidity 94    
Minimum Humidity 26    
Precipitation  
Precipitation 0.00 in 0.04 in - ()
Sea Level Pressure  
Sea Level Pressure 30.00 in    
Wind  
Wind Speed 4 mph ()    
Max Wind Speed 15 mph    
Max Gust Speed -    
Visibility 7.3 miles    
Events      
T = Trace of Precipitation, MM = Missing Value Source: Averaged Metar Reports

Daily Weather History Graph

Daily Weather History Graph

Search for Another Location

Airport or City:

Trip Planner

Search our weather history database for the weather conditions in past years. The results will help you decide how hot, cold, wet, or windy it might be!

Date:

Astronomy

Aug. 13, 2013 Rise Set
Actual Time 6:59 AM CEST 8:47 PM CEST
Civil Twilight 6:30 AM CEST 9:16 PM CEST
Nautical Twilight 5:55 AM CEST 9:51 PM CEST
Astronomical Twilight 5:17 AM CEST 10:28 PM CEST
Moon 1:36 PM CEST (8/13) No Moon Set
Length of Visible Light 14h 45m
Length of Day
13h 47m
Waxing Crescent, 39% of the Moon is Illuminated
Aug 13
Waxing Crescent
Aug 14
First Quarter
Aug 21
Full
Aug 28
Last Quarter
Sep 5
New

Hourly Weather History & Observations

Time (CEST) Temp. Heat Index Dew Point Humidity Pressure Visibility Wind Dir Wind Speed Gust Speed Precip Events Conditions
12:00 AM 78.8 °F - 68.0 °F 69% 30.01 in 6.2 mi Calm Calm - N/A   Partly Cloudy
12:30 AM 78.8 °F - 68.0 °F 69% 30.01 in 6.2 mi Calm Calm - N/A   Partly Cloudy
1:00 AM 75.2 °F - 66.2 °F 73% 30.01 in 6.2 mi Calm Calm - N/A   Partly Cloudy
1:30 AM 75.2 °F - 68.0 °F 78% 30.01 in 6.2 mi SE 1.2 mph - N/A   Partly Cloudy
2:00 AM 74 °F - 69 °F 79% 30.01 in 16 mi East 1.2 mph - -   Scattered Clouds
2:00 AM 75.2 °F - 68.0 °F 78% 30.01 in - NE 2.3 mph - N/A   Clear
2:30 AM 73.4 °F - 68.0 °F 83% 30.01 in - NE 3.5 mph - N/A   Clear
3:00 AM 73.4 °F - 68.0 °F 83% 29.98 in - NE 1.2 mph - N/A   Clear
3:30 AM 71.6 °F - 68.0 °F 88% 29.98 in - ENE 2.3 mph - N/A   Clear
4:00 AM 73.4 °F - 68.0 °F 83% 29.98 in 6.2 mi Calm Calm - N/A   Partly Cloudy
4:30 AM 69.8 °F - 66.2 °F 88% 29.98 in 6.2 mi ENE 1.2 mph - N/A   Partly Cloudy
5:00 AM 69.8 °F - 68.0 °F 94% 29.98 in 6.2 mi North 2.3 mph - N/A   Partly Cloudy
5:30 AM 69.8 °F - 64.4 °F 83% 29.98 in 6.2 mi Calm Calm - N/A   Partly Cloudy
6:00 AM 69.8 °F - 66.2 °F 88% 29.98 in 6.2 mi Calm Calm - N/A   Partly Cloudy
6:30 AM 69.8 °F - 66.2 °F 88% 29.98 in 6.2 mi Calm Calm - N/A   Partly Cloudy
7:00 AM 69.8 °F - 66.2 °F 88% 29.98 in 6.2 mi Calm Calm - N/A   Partly Cloudy
7:30 AM 69.8 °F - 66.2 °F 88% 29.98 in 6.2 mi Variable 2.3 mph - N/A   Partly Cloudy
8:00 AM 69 °F - 65 °F 82% 29.99 in 16 mi North 3.5 mph - -   Scattered Clouds
8:00 AM 68.0 °F - 64.4 °F 88% 29.98 in 6.2 mi Variable 2.3 mph - N/A   Partly Cloudy
8:30 AM 71.6 °F - 66.2 °F 83% 29.98 in 6.2 mi East 3.5 mph - N/A   Partly Cloudy
9:00 AM 78.8 °F - 64.4 °F 61% 29.98 in 6.2 mi Variable 2.3 mph - N/A   Partly Cloudy
9:30 AM 82.4 °F 83.4 °F 62.6 °F 51% 30.01 in 6.2 mi Variable 2.3 mph - N/A   Partly Cloudy
10:00 AM 84.2 °F 83.8 °F 59.0 °F 42% 30.01 in 6.2 mi NE 4.6 mph - N/A   Partly Cloudy
10:30 AM 87.8 °F - 51.8 °F 29% 30.01 in 6.2 mi Calm Calm - N/A   Partly Cloudy
11:00 AM 89.6 °F - 50.0 °F 26% 30.01 in 6.2 mi NNE 1.2 mph - N/A   Partly Cloudy
12:00 PM 91.4 °F - 51.8 °F 26% 30.01 in 6.2 mi SW 6.9 mph - N/A   Partly Cloudy
12:30 PM 91.4 °F 89.1 °F 53.6 °F 28% 30.01 in 6.2 mi SW 8.1 mph - N/A   Partly Cloudy
1:00 PM 89.6 °F 88.9 °F 59.0 °F 36% 30.01 in 6.2 mi SW 10.4 mph - N/A   Partly Cloudy
1:30 PM 89.6 °F 90.1 °F 62.6 °F 40% 30.01 in 6.2 mi SW 11.5 mph - N/A   Partly Cloudy
2:00 PM 90 °F - 60 °F 26% 30.02 in 19 mi SW 15.0 mph - -   Scattered Clouds
2:00 PM 89.6 °F 90.1 °F 62.6 °F 40% 30.01 in 6.2 mi SW 13.8 mph - N/A   Partly Cloudy
2:30 PM 87.8 °F 90.4 °F 66.2 °F 49% 30.01 in 6.2 mi SW 13.8 mph - N/A   Partly Cloudy
3:00 PM 89.6 °F 93.4 °F 68.0 °F 49% 30.01 in 6.2 mi SW 13.8 mph - N/A   Partly Cloudy
3:30 PM 87.8 °F 91.4 °F 68.0 °F 52% 30.01 in 6.2 mi WSW 15.0 mph - N/A   Partly Cloudy
4:00 PM 87.8 °F 91.4 °F 68.0 °F 52% 30.01 in 6.2 mi SW 12.7 mph - N/A   Partly Cloudy
4:30 PM 84.2 °F 88.4 °F 69.8 °F 62% 30.01 in 6.2 mi WSW 11.5 mph - N/A   Partly Cloudy
5:00 PM 87.8 °F 92.6 °F 69.8 °F 55% 30.01 in 6.2 mi SW 11.5 mph - N/A   Partly Cloudy
5:30 PM 86.0 °F 89.4 °F 68.0 °F 55% 30.01 in - SSW 10.4 mph - N/A   Clear
6:00 PM 86.0 °F 87.3 °F 64.4 °F 48% 30.01 in - SW 8.1 mph - N/A   Clear
6:30 PM 87.8 °F 86.5 °F 57.2 °F 35% 29.98 in 6.2 mi SW 8.1 mph - N/A   Partly Cloudy
7:00 PM 86.0 °F 85.4 °F 59.0 °F 40% 29.98 in 6.2 mi SW 6.9 mph - N/A   Partly Cloudy
7:30 PM 84.2 °F 86.6 °F 66.2 °F 55% 30.01 in 6.2 mi WSW 4.6 mph - N/A   Partly Cloudy
8:00 PM 84 °F - 67 °F 48% 30.01 in 16 mi WSW 6.9 mph - -   Partly Cloudy
8:00 PM 84.2 °F 87.3 °F 68.0 °F 58% 30.01 in - WSW 6.9 mph - N/A   Clear
8:30 PM 82.4 °F 85.4 °F 68.0 °F 62% 30.01 in - SW 4.6 mph - N/A   Clear
9:00 PM 82.4 °F 83.9 °F 64.4 °F 54% 30.01 in 6.2 mi SW 2.3 mph - N/A   Partly Cloudy
9:30 PM 80.6 °F 83.2 °F 68.0 °F 65% 30.01 in - NE 6.9 mph - N/A   Clear
10:00 PM 80.6 °F 83.9 °F 69.8 °F 70% 30.04 in - ENE 8.1 mph - N/A   Clear
10:30 PM 78.8 °F - 68.0 °F 69% 30.04 in - ENE 9.2 mph - N/A   Clear
11:00 PM 78.8 °F - 68.0 °F 69% 30.04 in - ENE 6.9 mph - N/A   Clear
11:30 PM 78.8 °F - 68.0 °F 69% 30.04 in - East 9.2 mph - N/A   Clear